TimeEDT,TemperatureF,Dew PointF,Humidity,Sea Level PressureIn,VisibilityMPH,Wind Direction,Wind SpeedMPH,Gust SpeedMPH,PrecipitationIn,Events,Conditions,WindDirDegrees,DateUTC
12:15 AM,65.3,63.9,95,29.82,10.0,South,4.6,-,0.01,,Overcast,180,2013-10-11 04:15:00
12:35 AM,65.3,63.9,95,29.82,10.0,South,3.5,-,0.01,,Overcast,170,2013-10-11 04:35:00
12:55 AM,65.3,64.0,96,29.82,10.0,South,4.6,-,0.02,,Overcast,180,2013-10-11 04:55:00
1:15 AM,64.9,64.0,97,29.82,10.0,South,4.6,-,N/A,,Overcast,190,2013-10-11 05:15:00
1:35 AM,64.6,63.7,97,29.81,7.0,South,4.6,-,0.01,,Overcast,190,2013-10-11 05:35:00
1:55 AM,64.4,63.9,98,29.81,7.0,SSE,4.6,-,0.01,,Overcast,150,2013-10-11 05:55:00
2:15 AM,64.4,63.5,97,29.81,10.0,South,5.8,-,0.01,,Overcast,180,2013-10-11 06:15:00
2:55 AM,64.4,63.0,95,29.81,10.0,Calm,Calm,-,0.02,,Overcast,0,2013-10-11 06:55:00
3:15 AM,64.4,63.1,96,29.81,10.0,Calm,Calm,-,N/A,,Overcast,0,2013-10-11 07:15:00
3:35 AM,64.0,63.5,98,29.81,3.0,Calm,Calm,-,0.01,,Overcast,0,2013-10-11 07:35:00
3:55 AM,64.0,63.7,99,29.81,3.0,Calm,Calm,-,0.01,,Overcast,0,2013-10-11 07:55:00
4:15 AM,64.0,63.9,99,29.80,4.0,Calm,Calm,-,0.01,,Overcast,0,2013-10-11 08:15:00
4:35 AM,64.4,64.0,99,29.80,5.0,Calm,Calm,-,0.01,,Overcast,0,2013-10-11 08:35:00
4:55 AM,64.4,63.9,98,29.81,10.0,Calm,Calm,-,0.02,,Overcast,0,2013-10-11 08:55:00
5:15 AM,64.4,63.9,98,29.81,10.0,Calm,Calm,-,N/A,,Overcast,0,2013-10-11 09:15:00
5:35 AM,64.6,64.0,98,29.82,10.0,Calm,Calm,-,N/A,,Overcast,0,2013-10-11 09:35:00
5:55 AM,64.4,64.2,99,29.82,10.0,Calm,Calm,-,0.01,,Overcast,0,2013-10-11 09:55:00
6:15 AM,64.4,64.0,99,29.83,3.0,Calm,Calm,-,N/A,,Overcast,0,2013-10-11 10:15:00
6:35 AM,64.4,64.4,100,29.84,2.0,Calm,Calm,-,0.01,,Overcast,0,2013-10-11 10:35:00
6:55 AM,64.4,64.4,100,29.84,2.5,Calm,Calm,-,0.01,,Overcast,0,2013-10-11 10:55:00
7:15 AM,64.6,64.4,99,29.84,4.0,Calm,Calm,-,0.01,,Overcast,0,2013-10-11 11:15:00
7:35 AM,64.9,64.8,99,29.84,3.0,North,5.8,-,0.01,,Overcast,350,2013-10-11 11:35:00
7:55 AM,64.6,64.4,99,29.85,1.2,NNW,5.8,-,0.02,,Overcast,330,2013-10-11 11:55:00
8:15 AM,64.4,64.0,99,29.85,1.5,NW,4.6,-,N/A,,Overcast,320,2013-10-11 12:15:00
8:35 AM,63.9,63.7,99,29.86,1.5,NW,8.1,-,N/A,,Overcast,310,2013-10-11 12:35:00
8:55 AM,63.7,63.5,99,29.87,1.8,NW,5.8,-,0.01,,Overcast,310,2013-10-11 12:55:00
9:15 AM,63.9,63.5,99,29.87,7.0,NW,5.8,-,N/A,,Overcast,320,2013-10-11 13:15:00
9:35 AM,63.9,63.5,99,29.87,7.0,WNW,8.1,-,0.01,,Overcast,300,2013-10-11 13:35:00
9:55 AM,63.5,62.8,97,29.88,10.0,WNW,8.1,-,0.01,,Overcast,290,2013-10-11 13:55:00
10:15 AM,63.5,63.0,98,29.88,4.0,WNW,6.9,-,N/A,,Overcast,300,2013-10-11 14:15:00
10:35 AM,63.5,62.8,97,29.88,4.0,NW,9.2,-,0.01,,Overcast,310,2013-10-11 14:35:00
10:55 AM,63.5,62.8,97,29.88,5.0,WNW,9.2,-,0.01,,Overcast,290,2013-10-11 14:55:00
11:15 AM,63.9,62.8,96,29.88,10.0,NW,9.2,-,N/A,,Overcast,310,2013-10-11 15:15:00
11:35 AM,64.0,62.4,94,29.89,10.0,WNW,10.4,-,N/A,,Overcast,300,2013-10-11 15:35:00
11:55 AM,64.2,62.2,93,29.89,10.0,WNW,11.5,16.1,0.01,,Overcast,300,2013-10-11 15:55:00
12:15 PM,64.0,62.1,93,29.89,10.0,NW,9.2,-,N/A,,Overcast,310,2013-10-11 16:15:00
12:35 PM,63.9,62.1,94,29.88,7.0,NW,9.2,-,N/A,,Overcast,310,2013-10-11 16:35:00
12:55 PM,64.4,62.1,92,29.88,10.0,WNW,10.4,-,0.01,,Overcast,290,2013-10-11 16:55:00
1:15 PM,64.2,62.8,95,29.87,4.0,NW,8.1,-,N/A,,Light Drizzle,310,2013-10-11 17:15:00
1:35 PM,64.6,62.4,93,29.87,10.0,WNW,8.1,-,N/A,,Overcast,300,2013-10-11 17:35:00
1:55 PM,64.6,62.2,92,29.87,10.0,WNW,8.1,-,0.01,,Overcast,300,2013-10-11 17:55:00
2:15 PM,64.9,62.2,91,29.87,10.0,WNW,8.1,-,N/A,,Overcast,300,2013-10-11 18:15:00
2:35 PM,64.4,62.6,94,29.86,7.0,WNW,6.9,-,0.01,,Overcast,300,2013-10-11 18:35:00
2:55 PM,64.8,62.2,92,29.86,10.0,WNW,8.1,-,0.01,,Overcast,300,2013-10-11 18:55:00
3:15 PM,65.3,62.2,90,29.86,10.0,WNW,6.9,-,N/A,,Overcast,290,2013-10-11 19:15:00
3:35 PM,65.3,62.2,90,29.86,10.0,WNW,5.8,-,N/A,,Overcast,300,2013-10-11 19:35:00
3:55 PM,65.1,62.2,90,29.87,10.0,WNW,8.1,-,0.01,,Overcast,290,2013-10-11 19:55:00
4:15 PM,64.8,62.2,92,29.87,10.0,WNW,8.1,-,N/A,,Overcast,300,2013-10-11 20:15:00
4:35 PM,64.9,62.6,92,29.87,10.0,WNW,6.9,-,N/A,,Overcast,300,2013-10-11 20:35:00
4:55 PM,64.9,62.6,92,29.87,10.0,WNW,8.1,-,0.01,,Overcast,300,2013-10-11 20:55:00
5:15 PM,64.8,62.8,93,29.87,10.0,WNW,8.1,-,N/A,,Overcast,300,2013-10-11 21:15:00
5:35 PM,64.8,62.8,93,29.87,10.0,WNW,6.9,-,N/A,,Overcast,290,2013-10-11 21:35:00
5:55 PM,64.8,63.0,94,29.87,10.0,WNW,8.1,-,N/A,,Overcast,300,2013-10-11 21:55:00
6:15 PM,64.6,62.8,94,29.88,7.0,WNW,6.9,-,N/A,,Overcast,300,2013-10-11 22:15:00
6:35 PM,64.4,62.8,94,29.88,5.0,WNW,6.9,-,N/A,,Overcast,300,2013-10-11 22:35:00
6:55 PM,64.4,62.6,94,29.89,10.0,NW,5.8,-,N/A,,Overcast,310,2013-10-11 22:55:00
7:15 PM,64.4,62.8,94,29.89,7.0,NW,8.1,-,0.01,,Overcast,320,2013-10-11 23:15:00
7:35 PM,64.4,62.4,93,29.90,7.0,WNW,10.4,-,0.01,,Overcast,300,2013-10-11 23:35:00
7:55 PM,64.4,62.6,94,29.90,5.0,WNW,9.2,-,0.01,,Overcast,300,2013-10-11 23:55:00
8:15 PM,63.9,62.8,96,29.91,3.0,NW,8.1,-,N/A,,Overcast,310,2013-10-12 00:15:00
8:35 PM,63.1,62.6,98,29.91,3.0,NW,8.1,-,0.01,,Overcast,310,2013-10-12 00:35:00
8:55 PM,63.1,62.6,98,29.91,4.0,NW,5.8,-,0.01,,Overcast,320,2013-10-12 00:55:00
9:15 PM,63.3,62.6,97,29.91,7.0,NW,4.6,-,N/A,,Overcast,310,2013-10-12 01:15:00
9:35 PM,63.0,62.2,97,29.92,5.0,NW,5.8,-,N/A,,Overcast,320,2013-10-12 01:35:00
9:55 PM,63.3,62.6,97,29.92,5.0,NW,5.8,-,0.01,,Overcast,310,2013-10-12 01:55:00
10:15 PM,63.1,62.6,98,29.92,5.0,NW,5.8,-,N/A,,Overcast,310,2013-10-12 02:15:00
10:35 PM,63.5,62.6,97,29.92,10.0,NW,4.6,-,N/A,,Overcast,310,2013-10-12 02:35:00
10:55 PM,63.5,62.2,96,29.92,10.0,NW,3.5,-,N/A,,Overcast,310,2013-10-12 02:55:00
11:15 PM,63.5,62.6,97,29.92,10.0,NW,4.6,-,N/A,,Overcast,310,2013-10-12 03:15:00
11:35 PM,63.5,62.6,97,29.92,10.0,NW,3.5,-,0.01,,Overcast,310,2013-10-12 03:35:00
11:55 PM,63.5,62.6,97,29.92,10.0,NW,5.8,-,0.01,,Overcast,310,2013-10-12 03:55:00